Port Aransas, TX (PTAT2)

Conditions for Thursday

Daily
Weekly
Monthly
Marine Data Graph

Marine & Boating Location Search

Enter a coastal zip code for marine weather.

General Information

Location: 27.826 -97.051
Buoy Type: C-MAN Station
Payload: MARS payload
Owned by: NDBC
Windspeed: Measured by obtained from anemometer
Sea Surface: Measured by Intake

Weather and Wave Data

Time Temp Humidity Wind Pressure
  Air
(°F)
Water
(°F)
  Dir Speed
(kts)
Speed
(mph)
Atmo.
(in)
Tend.
(in)
20:00 75 76 85 East 8.0 9.2 30.00 +0.04
21:00 75 76 87 ESE 6.0 6.9 30.01 +0.04
22:00 76 76 81 SE 9.0 10.4 30.01 +0.04
23:00 76 76 80 SSE 10.0 11.5 30.02 +0.02
00:00 76 76 84 SSE 8.0 9.2 30.03 +0.01
01:00 76 76 84 SSE 7.0 8.1 30.03 +0.01
02:00 76 76 84 South 7.0 8.1 30.02 -
03:00 75 76 87 South 5.0 5.8 30.02 -0.01
04:00 75 76 87 South 4.0 4.6 30.02 -0.01
05:00 75 76 87 SSW 2.0 2.3 30.01 -0.01
06:00 74 76 92 South 2.0 2.3 30.01 -0.01
07:00 74 76 91 - 0.0 0.0 30.02 -
08:00 74 75 92 NNE 1.0 1.2 30.04 +0.03
09:00 76 75 88 East 2.0 2.3 30.06 +0.04
10:00 76 75 85 ENE 1.0 1.2 30.07 +0.05
11:00 75 76 83 East 4.0 4.6 30.08 +0.04
12:00 76 76 81 ESE 6.0 6.9 30.08 +0.02
13:00 76 77 81 ESE 6.0 6.9 30.06 -0.01
14:00 76 77 73 SSE 7.0 8.1 30.04 -0.04
15:00 76 77 61 ESE 7.0 8.1 30.01 -0.06
16:00 76 78 65 ESE 9.0 10.4 30.00 -0.06
17:00 76 78 70 ESE 8.0 9.2 29.99 -0.04
18:00 76 78 77 ESE 8.0 9.2 29.99 -0.02
19:00 76 78 79 East 9.0 10.4 30.00 -
20:00 76 78 80 East 8.0 9.2 30.01 +0.01
21:00 75 78 85 ESE 8.0 9.2 30.02 +0.02
22:00 76 77 80 SE 11.0 12.7 30.02 +0.02
23:00 76 77 77 SE 10.0 11.5 30.02 +0.01
00:00 76 77 78 SE 12.0 13.8 30.01 -
02:00 76 77 75 SSE 10.0 11.5 30.01 -0.01
03:00 76 77 78 SSE 11.0 12.7 30.00 -0.01

Detailed Wave Spectra